星链-36726(STARLINK-36726)

导读 | 豆包AI

STARLINK-36726是美国SpaceX星链计划的卫星,于2026年2月20日发射入轨,属于星链星座组网的一部分。星链旨在构建全球卫星互联网,为全球偏远地区、海洋等网络盲区提供高速宽带服务,该卫星加入后,将进一步扩充星链星座规模,提升全球网络覆盖能力与服务稳定性。

基本信息
目录编号:
67854
目录名称:
STARLINK-36608
国际标识:
2026-034E
轨道中心:
EARTH
卫星名称:
星链-36726
卫星全名:
星链-36726(STARLINK-36726)
卫星状态:
在轨 (已飞行43 天)
发射日期:
2026-02-20 UTC
国别 :
美国 (US)
星等 :
--
轨道信息
数据来源 国际轨道数据
星历时间: 2026-04-04T04:00:02+0800
4小时前
查看轨道信息
半长轴: 6844.026km
偏心率: 0.0001233
轨道倾角: 53.159°
近地点辐角 82.533°
升交点赤经 87.297°
平近点角 54.301°
近地点: 465.045km
远地点: 466.733km
周期: 93.913分钟
每日圈数: 15.333291
详细信息
固有亮度:
5
最大亮度:
2.5
卫星平台:
Starlink V1.0
覆盖范围:
全球
运营商:
太空探索技术公司
运营商所在国:
美国
制造商(研发单位):
太空探索技术公司
制造商所在国:
美国
使用方式:
暂无
卫星简介
Starlink 计划是 SpaceX 推出的全球卫星互联网项目,通过发射低轨道卫星,为全球尤其是偏远地区提供高速、低延迟的互联网服务。自 2019 年起,Starlink 已部署数千颗卫星,旨在缩小全球数字鸿沟,推动互联网普及。该项目还为军事、航空等行业提供通信支持,带来广泛经济效益。
2D轨道图
3D轨道图
轨道高度分析图
轨道倾角分析图
轨道综合分析图
查看轨道综合分析图